Location: Chèvreville
(49.1099°N, 2.8495°E)
Time: 07:53:10
(UTC+00:00)

Cosmos 2278 - Pass Details

Date: 28 January 2023
Orbit: 838 x 853 km, 71.1° (Epoch: 22 March)

Event Time Altitude Azimuth Distance (km) Brightness Sun altitude
Rises 19:23:11 0° 223° (SW) 3,389 7.4 -26.9°
Reaches altitude 10° 19:25:41 10° 229° (SW) 2,460 6.6 -27.3°
Maximum altitude 19:31:11 51° 305° (NW) 1,057 4.4 -28.2°
Enters shadow 19:33:40 31° 4° (N) 1,463 4.9 -28.6°
